DECAYED
Showing default

LEMUR 2 ZO, 43886 (Decayed)

Orbit data source: Space-Track

LEMUR 2 ZO, 43886 was a payload satellite owned by Spire/Lux (US) in LEO that was launched on Thu, 27 Dec 2018 UTC via a SOYUZ-2-1A launch vehicle from the Vostochny Cosmodrome (VOSTO). Payload-class satellites include a variety of spacecraft equipped with specific instruments for various scientific and technological missions. These include communications satellites like Starlink; space stations such as the ISS; scientific satellites like the Hubble; Earth observation satellites from companies like Planet Labs, Umbra, and HawkEye 360; GPS; miniature CubeSats for education and research; and military/defense satellites.

Not visible in the next 10 days
Identifier
43886, 2018-111L
Orbit
Decayed
Country
Flag of USUS
Related business
Manufacturer
Spire/Glasgow
Mission
Decayed Commercial Com/MetRO
Bus & Motor
CUBESAT 3U, Unknown motor
Mass
4.6 kg wet, 4.6 kg dry
Launch date (UTC)
2018-12-27 (7 years ago)
Launch vehicle
SOYUZ-2-1A
Launch site
Vostochny Cosmodrome (VOSTO)
Object type
Payload
Rocket body
Debris
Shape & HBR
Box + 2 Pan, 0.5 m
Radar Cross Section
0.124 m², Small (<0.1 m²)

Expand to show TLE details & history
Last TLE update: 7 months ago

TLE from 7 months ago
0 LEMUR 2 ZO
1 43886U 18111L   25129.20436029  .06597359  26444-5  11594-2 0  9997
2 43886  97.5672  60.9746 0009022 213.8339 146.2381 16.32718538350020
Epoch: 2025-05-09T04:54Z
TLE epoch observation values (Epoch: 2025-05-09T04:54:16.729Z)
Latitude
-0.00004°
Longitude
120.14104°
Altitude
193.406 km
Speed
7.787 km/s
True Right ascension
04h 03m 53s
True Declination
0° 00' 00"
Sunlit
Object was in daylight at epoch
Visualization orbit readout
Latitude
Unknown
Longitude
Unknown
Altitude
Unknown
Speed
Unknown
Apparent Right ascension
Unknown
Apparent Declination
Unknown
Sunlit
N/A
Visualization observer readout
Local Sidereal Time
01:10:22
Azimuth
Unknown
Elevation
Unknown
Doppler factor
Unknown
Orbital elements
Apogee altitude
187.987 km
Perigee altitude
176.15 km
Semi-major axis
6,560.206 km
Eccentricity
0.0009
Inclination
97.5672°
RAAN
60.9746°
Arg. of periapsis
213.8339°
True anomaly
146.2955°
Mean anomaly
146.2381°
Eccentric anomaly
146.26681°
Mean motion
4.08476 °/min
Orbital period
88.13 mins
BSTAR
0.0011594
Loading maneuver chart data...
Computing Atmospheric mass density...
Loading historical data...
Loading historical data...
Loading historical data...
Loading historical data...
Loading historical data...
Loading historical data...
Loading historical data...

Documentation

Showing up to 5 results
|